RKSI

Incheon International Airport

Airport
ICAO code
RKSI
IATA Code
ICN
Summary
ICAO Region
APAC
ICAO Territory
Location

Jung District, Incheon,

Serving
Seoul
Elevation
23 ft
Coordinates
37° 27' 52" N , 126° 27' 14" E
KCC
Metar
Observation
RKSI 071730Z 06006KT CAVOK 11/07 Q1024 NOSIG
Station
Incheon International Airport
Date/Time
2022-10-07 17:30:00
Wind direction
60°
Wind speed
06 kts
Lowest cloud amount
clouds and visibility OK
Temperature
11°C
Dew point
7°C
Humidity
76%
QNH
1024 hPa
Weather condition
n/a

Description

Incheon International Airport is the main international airport in South Korea and one of the largest and busiest in south east Asia. It is located within the Seoul National Capital Area.

Climatology

Warm continental climate/Humid continental climate/Humid subtropical climate (Köppen climate classification Dwa/Cwa)

Runways

Designator Length Width Surface Rops
15L/33R 3750 60 PEM Yes/Yes
15R/33L 3750 60 PEM Yes/Yes

Airport map

Aerial View

SKYbrary Partners:

Safety knowledge contributed by: